Location: Forest
(37.3641°N, 79.2902°W)
Time: 06:31:10
(UTC+00:00)

Hubble Space Telescope - Pass Details

Date: 29 January 2026
Orbit: 478 x 480 km, 28.5° (Epoch: 10 February)

Event Time Altitude Azimuth Distance (km) Brightness Sun altitude
Rises 00:23:16 0° 252° (WSW) 2,513 5.6 -21.1°
Reaches altitude 10° 00:25:55 10° 233° (SW) 1,636 4.1 -21.7°
Maximum altitude 00:28:36 19° 188° (S) 1,200 2.7 -22.2°
Enters shadow 00:29:07 18° 177° (S) 1,219 2.6 -22.3°
